EW6070 Weather Reports


time (UTC)temp
C
wind
direction
speed
KPH
gust
KPH
rain 1hr
cm
rain 24hr
cm
rain mn
cm
humidity
%
barometer
mb
20260504081504 -17 0.0 0.0 0.00 0.00 0.00 1019.0
20260504080159 -17 0.0 0.0 0.00 0.00 0.00 1019.0
20260504050008 -17 0.0 0.0 0.00 0.00 0.00 1018.4
20260504044506 -17 0.0 0.0 0.00 0.00 0.00 1018.2
20260504043109 -17 0.0 0.0 0.00 0.00 0.00 1018.1
20260504041555 -17 0.0 0.0 0.00 0.00 0.00 1018.1
20260504040053 -17 0.0 0.0 0.00 0.00 0.00 1018.1
20260504034546 -17 0.0 0.0 0.00 0.00 0.00 1018.0
20260504033042 -17 0.0 0.0 0.00 0.00 0.00 1017.9
20260504031538 -17 0.0 0.0 0.00 0.00 0.00 1017.8
20260504030032 -17 0.0 0.0 0.00 0.00 0.00 1017.8
20260504024528 -17 0.0 0.0 0.00 0.00 0.00 1017.8
20260504023025 -17 0.0 0.0 0.00 0.00 0.00 1017.7
20260504021520 -17 0.0 0.0 0.00 0.00 0.00 1017.7
20260504020017 10 339 0.0 0.0 0.00 0.00 0.00 46 1017.8
20260504014524 10 339 0.0 0.0 0.00 0.00 0.00 46 1017.8
20260504013014 10 339 0.0 0.0 0.00 0.00 0.00 46 1017.8
20260504011513 10 330 0.0 0.0 0.00 0.00 0.00 46 1017.7
20260504010010 10 320 0.0 0.0 0.00 0.00 0.00 45 1017.7
20260504004509 10 309 0.0 0.0 0.00 0.00 0.00 45 1017.7
20260504003008 10 294 0.0 0.0 0.00 0.00 0.00 45 1017.6
20260504001508 10 294 0.0 0.0 0.00 0.00 0.00 45 1017.6
20260504000015 10 294 0.0 0.0 0.00 0.00 0.00 45 1017.6
20260503234506 10 1 0.0 0.0 0.00 0.00 0.00 45 1017.7
20260503233006 10 0 0.0 0.0 0.00 0.00 0.00 45 1017.8
20260503231506 10 274 0.0 0.0 0.00 0.00 0.00 46 1017.9
20260503230005 10 275 0.0 0.0 0.00 0.00 0.00 45 1017.8
20260503224503 10 256 0.0 0.0 0.00 0.00 0.00 45 1017.7
20260503223003 10 313 0.0 0.0 0.00 0.00 0.00 45 1017.6
20260503221502 10 41 0.0 0.0 0.00 0.00 0.00 45 1017.7
20260503220106 10 51 0.0 0.0 0.00 0.00 0.00 45 1017.8
20260503214559 10 44 0.0 0.0 0.00 0.00 0.00 44 1017.9
20260503213057 10 320 0.0 0.0 0.00 0.00 0.00 44 1018.0
20260503211556 11 336 0.0 0.0 0.00 0.00 0.00 44 1017.9
20260503210057 11 356 0.0 0.0 0.00 0.00 0.00 44 1018.0
20260503204606 11 316 0.0 0.0 0.00 0.00 0.00 44 1018.1
20260503203100 11 301 0.0 0.0 0.00 0.00 0.00 44 1018.1
20260503201554 11 27 0.0 0.0 0.00 0.00 0.00 44 1018.2
20260503200052 11 298 0.0 0.0 0.00 0.00 0.00 44 1018.2
20260503194608 11 299 0.0 0.0 0.00 0.00 0.00 44 1018.1
20260503193051 11 316 0.0 0.0 0.00 0.00 0.00 43 1018.1
20260503191556 11 312 0.0 0.0 0.00 0.00 0.00 43 1018.1
20260503190058 11 278 0.0 0.0 0.00 0.00 0.00 42 1018.0
20260503184531 11 333 0.0 0.0 0.00 0.00 0.00 41 1017.9
20260503183057 11 330 0.0 0.0 0.00 0.00 0.00 41 1017.6
20260503181502 11 261 0.0 0.0 0.00 0.00 0.00 41 1017.3
20260503180108 12 275 0.0 0.0 0.00 0.00 0.00 40 1017.2
20260503174600 12 306 0.0 0.0 0.00 0.00 0.00 40 1017.0
20260503173203 12 304 0.0 0.0 0.00 0.00 0.00 40 1016.9
20260503171558 12 311 0.0 0.0 0.00 0.00 0.00 35 1016.7